Location: Berg
(47.2344°N, 9.5296°E)
Time: 14:06:44
(UTC+00:00)

Cosmos 44 - Pass Details

Date: 09 May 2021
Orbit: 571 x 791 km, 65.1° (Epoch: 13 June)

Event Time Altitude Azimuth Distance (km) Brightness Sun altitude
Rises 22:09:24 0° 323° (NW) 3,297 8.0 -23.3°
Reaches altitude 10° 22:11:52 10° 325° (NW) 2,360 7.0 -23.5°
Maximum altitude 22:17:20 79° 52° (NE) 795 3.5 -23.7°
Enters shadow 22:18:22 58° 123° (ESE) 897 3.5 -23.8°
